contact:dominique.lefevre@mio.osupytheas.fr, maurice.libes@osupytheas.fr, didier.mallarino@osupytheas.fr
Project:EMSO http://www.emso-fr.org/EMSO-France
Depth: 2436.0 m
Title:EMSO Ligure Ouest : Data MII capteur CSTAR
DateTime,Latitude,Longitude,Instrument_Serial,Reference_Counts,Signal_Counts,Corrected_Signal_raw_counts,Calculated_Beam_c_inverse_meters,Internal_thermistor_counts
DateTime,Latitude,Longitude,Instrument_Serial,Reference_Counts,Signal_Counts,Corrected_Signal_raw_counts,Calculated_Beam_c_inverse_meters,Internal_thermistor_counts
2020-10-20T00:02:07,42.805,6.029,CST-1368DR,5872,8219,15083,0.139,551
2020-10-20T00:05:08,42.805,6.029,CST-1368DR,5872,8219,15083,0.139,551
2020-10-20T00:08:10,42.805,6.029,CST-1368DR,5872,8218,15082,0.139,551
2020-10-20T00:11:11,42.805,6.029,CST-1368DR,5872,8219,15083,0.139,551
2020-10-20T00:14:13,42.805,6.029,CST-1368DR,5872,8219,15083,0.139,551
2020-10-20T00:17:14,42.805,6.029,CST-1368DR,5872,8219,15083,0.139,551
2020-10-20T00:20:16,42.805,6.029,CST-1368DR,5872,8213,15072,0.142,551
2020-10-20T00:23:18,42.805,6.029,CST-1368DR,5872,8219,15083,0.139,551
2020-10-20T00:26:19,42.805,6.029,CST-1368DR,5872,8218,15082,0.139,551
2020-10-20T00:29:21,42.805,6.029,CST-1368DR,5872,8219,15083,0.139,551
2020-10-20T00:32:22,42.805,6.029,CST-1368DR,5872,8217,15080,0.140,551
2020-10-20T00:35:24,42.805,6.029,CST-1368DR,5872,8218,15082,0.139,551
2020-10-20T00:38:25,42.805,6.029,CST-1368DR,5872,8218,15081,0.139,551
2020-10-20T00:41:27,42.805,6.029,CST-1368DR,5872,8219,15083,0.139,550
2020-10-20T00:44:29,42.805,6.029,CST-1368DR,5872,8219,15083,0.139,550
2020-10-20T00:47:30,42.805,6.029,CST-1368DR,5872,8218,15082,0.139,551
2020-10-20T00:50:32,42.805,6.029,CST-1368DR,5872,8217,15080,0.140,551
2020-10-20T00:53:33,42.805,6.029,CST-1368DR,5872,8218,15082,0.139,551
2020-10-20T00:56:35,42.805,6.029,CST-1368DR,5872,8217,15080,0.140,551
2020-10-20T00:59:37,42.805,6.029,CST-1368DR,5872,8218,15082,0.139,551
2020-10-20T01:02:38,42.805,6.029,CST-1368DR,5872,8217,15079,0.140,551
2020-10-20T01:05:40,42.805,6.029,CST-1368DR,5872,8218,15082,0.139,551
2020-10-20T01:08:41,42.805,6.029,CST-1368DR,5872,8219,15083,0.139,551
2020-10-20T01:11:43,42.805,6.029,CST-1368DR,5872,8217,15080,0.140,551
2020-10-20T01:14:44,42.805,6.029,CST-1368DR,5872,8217,15080,0.140,551
2020-10-20T01:17:46,42.805,6.029,CST-1368DR,5872,8219,15083,0.139,551
2020-10-20T01:20:48,42.805,6.029,CST-1368DR,5872,8217,15079,0.140,551
2020-10-20T01:23:49,42.805,6.029,CST-1368DR,5871,8217,15083,0.139,551
2020-10-20T01:26:51,42.805,6.029,CST-1368DR,5872,8216,15078,0.140,551
2020-10-20T01:29:52,42.805,6.029,CST-1368DR,5872,8216,15078,0.140,551
2020-10-20T01:32:54,42.805,6.029,CST-1368DR,5872,8217,15080,0.140,551
2020-10-20T01:35:56,42.805,6.029,CST-1368DR,5871,8216,15080,0.140,551
2020-10-20T01:38:57,42.805,6.029,CST-1368DR,5871,8218,15085,0.138,551
2020-10-20T01:41:59,42.805,6.029,CST-1368DR,5871,8217,15082,0.139,551
2020-10-20T01:45:00,42.805,6.029,CST-1368DR,5872,8217,15080,0.140,551
2020-10-20T01:48:02,42.805,6.029,CST-1368DR,5872,8218,15082,0.139,551
2020-10-20T01:51:03,42.805,6.029,CST-1368DR,5871,8217,15082,0.139,551
2020-10-20T01:54:05,42.805,6.029,CST-1368DR,5871,8218,15084,0.139,551
2020-10-20T01:57:07,42.805,6.029,CST-1368DR,5871,8217,15083,0.139,551
2020-10-20T02:00:08,42.805,6.029,CST-1368DR,5872,8217,15079,0.140,551
2020-10-20T02:03:10,42.805,6.029,CST-1368DR,5871,8217,15083,0.139,551
2020-10-20T02:06:11,42.805,6.029,CST-1368DR,5871,8217,15083,0.139,551
2020-10-20T02:09:13,42.805,6.029,CST-1368DR,5872,8216,15078,0.140,550
2020-10-20T02:12:14,42.805,6.029,CST-1368DR,5872,8218,15082,0.139,551
2020-10-20T02:15:16,42.805,6.029,CST-1368DR,5871,8218,15084,0.139,551
2020-10-20T02:18:18,42.805,6.029,CST-1368DR,5871,8218,15085,0.138,551
2020-10-20T02:21:19,42.805,6.029,CST-1368DR,5871,8217,15083,0.139,551
2020-10-20T02:24:21,42.805,6.029,CST-1368DR,5871,8217,15082,0.139,551
2020-10-20T02:27:22,42.805,6.029,CST-1368DR,5871,8217,15083,0.139,551
2020-10-20T02:30:24,42.805,6.029,CST-1368DR,5871,8217,15082,0.139,551
2020-10-20T02:33:26,42.805,6.029,CST-1368DR,5871,8217,15082,0.139,551
2020-10-20T02:36:27,42.805,6.029,CST-1368DR,5871,8217,15083,0.139,551
2020-10-20T02:39:29,42.805,6.029,CST-1368DR,5871,8217,15083,0.139,551
2020-10-20T02:42:30,42.805,6.029,CST-1368DR,5871,8217,15083,0.139,551
2020-10-20T02:45:32,42.805,6.029,CST-1368DR,5871,8218,15084,0.139,551
2020-10-20T02:48:33,42.805,6.029,CST-1368DR,5871,8217,15083,0.139,551
2020-10-20T02:51:35,42.805,6.029,CST-1368DR,5871,8218,15084,0.139,551
2020-10-20T02:54:37,42.805,6.029,CST-1368DR,5871,8217,15082,0.139,551
2020-10-20T02:57:38,42.805,6.029,CST-1368DR,5871,8217,15082,0.139,551
2020-10-20T03:00:40,42.805,6.029,CST-1368DR,5871,8217,15083,0.139,551
2020-10-20T03:03:41,42.805,6.029,CST-1368DR,5871,8217,15082,0.139,551
2020-10-20T03:06:43,42.805,6.029,CST-1368DR,5871,8217,15083,0.139,551
2020-10-20T03:09:45,42.805,6.029,CST-1368DR,5871,8217,15082,0.139,551
2020-10-20T03:12:46,42.805,6.029,CST-1368DR,5871,8217,15081,0.139,551
2020-10-20T03:15:48,42.805,6.029,CST-1368DR,5871,8217,15083,0.139,551
2020-10-20T03:18:49,42.805,6.029,CST-1368DR,5871,8216,15080,0.140,551
2020-10-20T03:21:51,42.805,6.029,CST-1368DR,5871,8216,15081,0.139,551
2020-10-20T03:24:52,42.805,6.029,CST-1368DR,5871,8216,15080,0.140,551
2020-10-20T03:27:54,42.805,6.029,CST-1368DR,5871,8216,15080,0.140,551
2020-10-20T03:30:56,42.805,6.029,CST-1368DR,5871,8217,15081,0.139,551
2020-10-20T03:33:57,42.805,6.029,CST-1368DR,5871,8217,15082,0.139,551
2020-10-20T03:36:59,42.805,6.029,CST-1368DR,5871,8216,15081,0.139,551
2020-10-20T03:40:00,42.805,6.029,CST-1368DR,5871,8217,15081,0.139,551
2020-10-20T03:43:02,42.805,6.029,CST-1368DR,5871,8217,15081,0.139,551
2020-10-20T03:46:03,42.805,6.029,CST-1368DR,5871,8217,15081,0.139,551
2020-10-20T03:49:05,42.805,6.029,CST-1368DR,5871,8217,15082,0.139,551
2020-10-20T03:52:07,42.805,6.029,CST-1368DR,5871,8217,15081,0.139,551
2020-10-20T03:55:08,42.805,6.029,CST-1368DR,5871,8218,15084,0.139,551
2020-10-20T03:58:10,42.805,6.029,CST-1368DR,5871,8217,15083,0.139,551
2020-10-20T04:01:11,42.805,6.029,CST-1368DR,5871,8217,15082,0.139,551
2020-10-20T04:04:13,42.805,6.029,CST-1368DR,5871,8217,15081,0.139,551
2020-10-20T04:07:15,42.805,6.029,CST-1368DR,5871,8217,15081,0.139,551
2020-10-20T04:10:16,42.805,6.029,CST-1368DR,5871,8217,15082,0.139,551
2020-10-20T04:13:18,42.805,6.029,CST-1368DR,5871,8217,15082,0.139,551
2020-10-20T04:16:19,42.805,6.029,CST-1368DR,5871,8217,15082,0.139,551
2020-10-20T04:19:21,42.805,6.029,CST-1368DR,5871,8216,15081,0.139,551
2020-10-20T04:22:22,42.805,6.029,CST-1368DR,5871,8211,15072,0.142,551
2020-10-20T04:25:24,42.805,6.029,CST-1368DR,5871,8213,15074,0.141,551
2020-10-20T04:28:26,42.805,6.029,CST-1368DR,5871,8217,15081,0.139,551
2020-10-20T04:31:27,42.805,6.029,CST-1368DR,5871,8216,15081,0.139,551
2020-10-20T04:34:29,42.805,6.029,CST-1368DR,5871,8217,15082,0.139,551
2020-10-20T04:37:30,42.805,6.029,CST-1368DR,5871,8217,15082,0.139,551
2020-10-20T04:40:32,42.805,6.029,CST-1368DR,5871,8216,15080,0.140,551
2020-10-20T04:43:33,42.805,6.029,CST-1368DR,5871,8217,15082,0.139,551
2020-10-20T04:46:35,42.805,6.029,CST-1368DR,5871,8217,15082,0.139,551
2020-10-20T04:49:37,42.805,6.029,CST-1368DR,5871,8217,15082,0.139,551
2020-10-20T04:52:38,42.805,6.029,CST-1368DR,5871,8217,15082,0.139,551
2020-10-20T04:55:40,42.805,6.029,CST-1368DR,5871,8215,15079,0.140,551
2020-10-20T04:58:41,42.805,6.029,CST-1368DR,5871,8216,15080,0.140,551
2020-10-20T05:01:43,42.805,6.029,CST-1368DR,5871,8216,15081,0.139,551
2020-10-20T05:04:45,42.805,6.029,CST-1368DR,5871,8217,15082,0.139,551
2020-10-20T05:07:46,42.805,6.029,CST-1368DR,5871,8217,15082,0.139,551
2020-10-20T05:10:48,42.805,6.029,CST-1368DR,5871,8215,15078,0.140,551
2020-10-20T05:13:49,42.805,6.029,CST-1368DR,5871,8217,15082,0.139,551
2020-10-20T05:16:51,42.805,6.029,CST-1368DR,5871,8216,15081,0.139,551
2020-10-20T05:19:52,42.805,6.029,CST-1368DR,5871,8217,15081,0.139,551
2020-10-20T05:22:54,42.805,6.029,CST-1368DR,5871,8217,15082,0.139,551
2020-10-20T05:25:56,42.805,6.029,CST-1368DR,5871,8217,15082,0.139,551
2020-10-20T05:28:57,42.805,6.029,CST-1368DR,5871,8216,15081,0.139,551
2020-10-20T05:31:59,42.805,6.029,CST-1368DR,5871,8216,15079,0.140,551
2020-10-20T05:35:00,42.805,6.029,CST-1368DR,5871,8215,15078,0.140,551
2020-10-20T05:38:02,42.805,6.029,CST-1368DR,5871,8217,15082,0.139,551
2020-10-20T05:41:04,42.805,6.029,CST-1368DR,5871,8216,15080,0.140,551
2020-10-20T05:44:05,42.805,6.029,CST-1368DR,5871,8217,15081,0.139,551
2020-10-20T05:47:07,42.805,6.029,CST-1368DR,5871,8217,15082,0.139,551
2020-10-20T05:50:08,42.805,6.029,CST-1368DR,5871,8216,15080,0.140,551
2020-10-20T05:53:10,42.805,6.029,CST-1368DR,5871,8214,15076,0.141,551
2020-10-20T05:56:11,42.805,6.029,CST-1368DR,5871,8217,15081,0.139,551
2020-10-20T05:59:13,42.805,6.029,CST-1368DR,5871,8216,15081,0.139,551
2020-10-20T06:02:15,42.805,6.029,CST-1368DR,5871,8216,15079,0.140,551
2020-10-20T06:05:16,42.805,6.029,CST-1368DR,5871,8216,15081,0.139,551
2020-10-20T06:08:18,42.805,6.029,CST-1368DR,5871,8217,15082,0.139,551
2020-10-20T06:11:19,42.805,6.029,CST-1368DR,5871,8214,15076,0.141,551
2020-10-20T06:14:21,42.805,6.029,CST-1368DR,5871,8216,15080,0.140,551
2020-10-20T06:17:23,42.805,6.029,CST-1368DR,5871,8216,15081,0.139,551
2020-10-20T06:20:24,42.805,6.029,CST-1368DR,5871,8215,15078,0.140,551
2020-10-20T06:23:26,42.805,6.029,CST-1368DR,5871,8217,15082,0.139,551
2020-10-20T06:26:27,42.805,6.029,CST-1368DR,5871,8217,15082,0.139,551
2020-10-20T06:29:29,42.805,6.029,CST-1368DR,5871,8216,15081,0.139,551
2020-10-20T06:32:30,42.805,6.029,CST-1368DR,5871,8216,15080,0.140,551
2020-10-20T06:35:32,42.805,6.029,CST-1368DR,5871,8216,15080,0.140,551
2020-10-20T06:38:34,42.805,6.029,CST-1368DR,5871,8216,15080,0.140,551
2020-10-20T06:41:35,42.805,6.029,CST-1368DR,5871,8212,15073,0.142,551
2020-10-20T06:44:37,42.805,6.029,CST-1368DR,5871,8217,15082,0.139,551
2020-10-20T06:47:38,42.805,6.029,CST-1368DR,5871,8216,15080,0.140,551
2020-10-20T06:50:40,42.805,6.029,CST-1368DR,5871,8217,15081,0.139,551
2020-10-20T06:53:41,42.805,6.029,CST-1368DR,5871,8216,15079,0.140,551
2020-10-20T06:56:43,42.805,6.029,CST-1368DR,5871,8216,15080,0.140,551
2020-10-20T06:59:45,42.805,6.029,CST-1368DR,5871,8217,15081,0.139,551
2020-10-20T07:02:46,42.805,6.029,CST-1368DR,5870,8217,15084,0.139,551
2020-10-20T07:05:48,42.805,6.029,CST-1368DR,5871,8216,15081,0.139,551
2020-10-20T07:08:49,42.805,6.029,CST-1368DR,5871,8217,15081,0.139,551
2020-10-20T07:11:51,42.805,6.029,CST-1368DR,5871,8217,15081,0.139,551
2020-10-20T07:14:52,42.805,6.029,CST-1368DR,5871,8216,15080,0.140,551
2020-10-20T07:17:54,42.805,6.029,CST-1368DR,5871,8216,15081,0.139,551
2020-10-20T07:20:56,42.805,6.029,CST-1368DR,5871,8216,15080,0.140,551
2020-10-20T07:23:57,42.805,6.029,CST-1368DR,5871,8216,15080,0.140,551
2020-10-20T07:26:59,42.805,6.029,CST-1368DR,5871,8216,15080,0.140,551
2020-10-20T07:30:00,42.805,6.029,CST-1368DR,5871,8217,15081,0.139,551
2020-10-20T07:33:02,42.805,6.029,CST-1368DR,5871,8216,15081,0.139,551
2020-10-20T07:36:04,42.805,6.029,CST-1368DR,5871,8217,15081,0.139,551
2020-10-20T07:39:05,42.805,6.029,CST-1368DR,5871,8216,15079,0.140,551
2020-10-20T07:42:07,42.805,6.029,CST-1368DR,5871,8216,15079,0.140,551
2020-10-20T07:45:08,42.805,6.029,CST-1368DR,5871,8216,15080,0.140,551
2020-10-20T07:48:10,42.805,6.029,CST-1368DR,5871,8216,15080,0.140,551
2020-10-20T07:51:11,42.805,6.029,CST-1368DR,5871,8216,15080,0.140,551
2020-10-20T07:54:13,42.805,6.029,CST-1368DR,5871,8216,15080,0.140,551
2020-10-20T07:57:15,42.805,6.029,CST-1368DR,5871,8217,15082,0.139,551
2020-10-20T08:00:16,42.805,6.029,CST-1368DR,5871,8216,15080,0.140,551
2020-10-20T08:03:18,42.805,6.029,CST-1368DR,5870,8216,15083,0.139,551
2020-10-20T08:06:19,42.805,6.029,CST-1368DR,5870,8216,15082,0.139,550
2020-10-20T08:09:21,42.805,6.029,CST-1368DR,5870,8215,15081,0.139,551
2020-10-20T08:12:23,42.805,6.029,CST-1368DR,5870,8216,15083,0.139,551
2020-10-20T08:15:24,42.805,6.029,CST-1368DR,5870,8216,15082,0.139,551
2020-10-20T08:18:26,42.805,6.029,CST-1368DR,5870,8216,15083,0.139,551
2020-10-20T08:21:27,42.805,6.029,CST-1368DR,5870,8217,15084,0.139,551
2020-10-20T08:24:29,42.805,6.029,CST-1368DR,5870,8216,15083,0.139,550
2020-10-20T08:27:30,42.805,6.029,CST-1368DR,5870,8216,15083,0.139,550
2020-10-20T08:30:32,42.805,6.029,CST-1368DR,5870,8216,15083,0.139,551
2020-10-20T08:33:34,42.805,6.029,CST-1368DR,5870,8216,15083,0.139,551
2020-10-20T08:36:35,42.805,6.029,CST-1368DR,5870,8216,15082,0.139,551
2020-10-20T08:39:37,42.805,6.029,CST-1368DR,5870,8216,15082,0.139,551
2020-10-20T08:42:38,42.805,6.029,CST-1368DR,5870,8216,15083,0.139,551
2020-10-20T08:45:40,42.805,6.029,CST-1368DR,5870,8214,15080,0.140,551
2020-10-20T08:48:41,42.805,6.029,CST-1368DR,5870,8216,15082,0.139,551
2020-10-20T08:51:43,42.805,6.029,CST-1368DR,5870,8216,15082,0.139,551
2020-10-20T08:54:45,42.805,6.029,CST-1368DR,5870,8216,15083,0.139,551
2020-10-20T08:57:46,42.805,6.029,CST-1368DR,5870,8215,15081,0.139,551
2020-10-20T09:00:48,42.805,6.029,CST-1368DR,5870,8216,15082,0.139,551
2020-10-20T09:03:49,42.805,6.029,CST-1368DR,5870,8213,15077,0.141,551
2020-10-20T09:06:51,42.805,6.029,CST-1368DR,5870,8215,15081,0.139,551
2020-10-20T09:09:53,42.805,6.029,CST-1368DR,5870,8216,15083,0.139,551
2020-10-20T09:12:54,42.805,6.029,CST-1368DR,5870,8216,15083,0.139,551
2020-10-20T09:15:56,42.805,6.029,CST-1368DR,5870,8216,15082,0.139,551
2020-10-20T09:18:57,42.805,6.029,CST-1368DR,5870,8216,15083,0.139,551
2020-10-20T09:21:59,42.805,6.029,CST-1368DR,5870,8216,15083,0.139,551
2020-10-20T09:25:00,42.805,6.029,CST-1368DR,5870,8215,15081,0.139,551
2020-10-20T09:28:02,42.805,6.029,CST-1368DR,5870,8215,15081,0.139,551
2020-10-20T09:31:04,42.805,6.029,CST-1368DR,5870,8216,15082,0.139,551
2020-10-20T09:34:05,42.805,6.029,CST-1368DR,5870,8216,15083,0.139,551
2020-10-20T09:37:07,42.805,6.029,CST-1368DR,5870,8216,15083,0.139,551
2020-10-20T09:40:08,42.805,6.029,CST-1368DR,5870,8216,15082,0.139,551
2020-10-20T09:43:10,42.805,6.029,CST-1368DR,5870,8216,15082,0.139,551
2020-10-20T09:46:11,42.805,6.029,CST-1368DR,5870,8216,15082,0.139,551
2020-10-20T09:49:13,42.805,6.029,CST-1368DR,5870,8216,15082,0.139,551
2020-10-20T09:52:15,42.805,6.029,CST-1368DR,5870,8216,15082,0.139,551
2020-10-20T09:55:16,42.805,6.029,CST-1368DR,5870,8215,15081,0.139,551
2020-10-20T09:58:18,42.805,6.029,CST-1368DR,5870,8216,15082,0.139,551
2020-10-20T10:01:19,42.805,6.029,CST-1368DR,5870,8217,15084,0.139,551
2020-10-20T10:04:21,42.805,6.029,CST-1368DR,5870,8216,15082,0.139,551
2020-10-20T10:07:23,42.805,6.029,CST-1368DR,5870,8216,15083,0.139,551
2020-10-20T10:10:24,42.805,6.029,CST-1368DR,5870,8216,15083,0.139,551
2020-10-20T10:13:26,42.805,6.029,CST-1368DR,5870,8216,15082,0.139,551
2020-10-20T10:16:27,42.805,6.029,CST-1368DR,5870,8215,15081,0.139,551
2020-10-20T10:19:29,42.805,6.029,CST-1368DR,5870,8215,15080,0.140,551
2020-10-20T10:22:30,42.805,6.029,CST-1368DR,5870,8215,15081,0.139,551
2020-10-20T10:25:32,42.805,6.029,CST-1368DR,5870,8215,15081,0.139,551
2020-10-20T10:28:34,42.805,6.029,CST-1368DR,5870,8215,15081,0.139,551
2020-10-20T10:31:35,42.805,6.029,CST-1368DR,5870,8216,15082,0.139,551
2020-10-20T10:34:37,42.805,6.029,CST-1368DR,5870,8216,15082,0.139,551
2020-10-20T10:37:38,42.805,6.029,CST-1368DR,5870,8215,15081,0.139,551
2020-10-20T10:40:40,42.805,6.029,CST-1368DR,5870,8215,15081,0.139,551
2020-10-20T10:43:42,42.805,6.029,CST-1368DR,5870,8215,15081,0.139,550
2020-10-20T10:46:43,42.805,6.029,CST-1368DR,5870,8216,15082,0.139,551
2020-10-20T10:49:45,42.805,6.029,CST-1368DR,5870,8215,15081,0.139,551
2020-10-20T10:52:46,42.805,6.029,CST-1368DR,5870,8216,15082,0.139,551
2020-10-20T10:55:48,42.805,6.029,CST-1368DR,5870,8216,15082,0.139,551
2020-10-20T10:58:49,42.805,6.029,CST-1368DR,5870,8215,15081,0.139,551
2020-10-20T11:01:51,42.805,6.029,CST-1368DR,5870,8216,15082,0.139,551
2020-10-20T11:04:53,42.805,6.029,CST-1368DR,5870,8216,15082,0.139,551
2020-10-20T11:07:54,42.805,6.029,CST-1368DR,5870,8215,15080,0.140,551
2020-10-20T11:10:56,42.805,6.029,CST-1368DR,5870,8215,15081,0.139,551
2020-10-20T11:13:57,42.805,6.029,CST-1368DR,5870,8216,15083,0.139,551
2020-10-20T11:16:59,42.805,6.029,CST-1368DR,5870,8215,15081,0.139,551
2020-10-20T11:20:01,42.805,6.029,CST-1368DR,5870,8216,15082,0.139,551
2020-10-20T11:23:02,42.805,6.029,CST-1368DR,5870,8215,15081,0.139,551
2020-10-20T11:26:04,42.805,6.029,CST-1368DR,5870,8215,15081,0.139,551
2020-10-20T11:29:05,42.805,6.029,CST-1368DR,5870,8214,15080,0.140,551
2020-10-20T11:32:07,42.805,6.029,CST-1368DR,5870,8215,15081,0.139,551
2020-10-20T11:35:08,42.805,6.029,CST-1368DR,5870,8215,15081,0.139,551
2020-10-20T11:38:10,42.805,6.029,CST-1368DR,5870,8215,15081,0.139,551
2020-10-20T11:41:12,42.805,6.029,CST-1368DR,5870,8215,15080,0.140,551
2020-10-20T11:44:13,42.805,6.029,CST-1368DR,5870,8215,15081,0.139,551
2020-10-20T11:47:15,42.805,6.029,CST-1368DR,5870,8215,15081,0.139,551
2020-10-20T11:50:16,42.805,6.029,CST-1368DR,5870,8213,15077,0.141,551
2020-10-20T11:53:18,42.805,6.029,CST-1368DR,5870,8214,15080,0.140,551
2020-10-20T11:56:19,42.805,6.029,CST-1368DR,5870,8215,15081,0.139,551
2020-10-20T11:59:21,42.805,6.029,CST-1368DR,5870,8215,15081,0.139,551
2020-10-20T12:02:23,42.805,6.029,CST-1368DR,5870,8216,15082,0.139,551
2020-10-20T12:05:24,42.805,6.029,CST-1368DR,5870,8215,15081,0.139,551
2020-10-20T12:08:26,42.805,6.029,CST-1368DR,5870,8215,15081,0.139,551
2020-10-20T12:11:27,42.805,6.029,CST-1368DR,5870,8214,15079,0.140,551
2020-10-20T12:14:29,42.805,6.029,CST-1368DR,5870,8215,15081,0.139,550
2020-10-20T12:17:31,42.805,6.029,CST-1368DR,5870,8215,15081,0.139,551
2020-10-20T12:20:32,42.805,6.029,CST-1368DR,5870,8215,15081,0.139,551
2020-10-20T12:23:34,42.805,6.029,CST-1368DR,5870,8215,15081,0.139,551
2020-10-20T12:26:35,42.805,6.029,CST-1368DR,5870,8215,15080,0.140,551
2020-10-20T12:29:37,42.805,6.029,CST-1368DR,5870,8215,15081,0.139,551
2020-10-20T12:32:38,42.805,6.029,CST-1368DR,5870,8214,15079,0.140,551
2020-10-20T12:35:40,42.805,6.029,CST-1368DR,5870,8215,15081,0.139,550
2020-10-20T12:38:42,42.805,6.029,CST-1368DR,5870,8215,15081,0.139,551
2020-10-20T12:41:43,42.805,6.029,CST-1368DR,5870,8215,15081,0.139,551
2020-10-20T12:44:45,42.805,6.029,CST-1368DR,5870,8215,15081,0.139,551
2020-10-20T12:47:46,42.805,6.029,CST-1368DR,5870,8215,15081,0.139,551
2020-10-20T12:50:48,42.805,6.029,CST-1368DR,5870,8215,15080,0.140,551
2020-10-20T12:53:50,42.805,6.029,CST-1368DR,5870,8215,15080,0.140,551
2020-10-20T12:56:51,42.805,6.029,CST-1368DR,5870,8214,15080,0.140,550
2020-10-20T12:59:53,42.805,6.029,CST-1368DR,5870,8215,15080,0.140,551
2020-10-20T13:02:54,42.805,6.029,CST-1368DR,5870,8214,15078,0.140,551
2020-10-20T13:05:56,42.805,6.029,CST-1368DR,5870,8215,15081,0.139,551
2020-10-20T13:08:57,42.805,6.029,CST-1368DR,5870,8213,15077,0.141,551
2020-10-20T13:11:59,42.805,6.029,CST-1368DR,5870,8214,15079,0.140,551
2020-10-20T13:15:01,42.805,6.029,CST-1368DR,5869,8214,15081,0.139,551
2020-10-20T13:18:02,42.805,6.029,CST-1368DR,5870,8214,15080,0.140,551
2020-10-20T13:21:04,42.805,6.029,CST-1368DR,5870,8215,15081,0.139,551
2020-10-20T13:24:05,42.805,6.029,CST-1368DR,5870,8212,15075,0.141,551
2020-10-20T13:27:07,42.805,6.029,CST-1368DR,5870,8212,15075,0.141,551
2020-10-20T13:30:08,42.805,6.029,CST-1368DR,5870,8214,15079,0.140,551
2020-10-20T13:33:10,42.805,6.029,CST-1368DR,5870,8215,15080,0.140,551
2020-10-20T13:36:12,42.805,6.029,CST-1368DR,5870,8215,15081,0.139,551
2020-10-20T13:39:13,42.805,6.029,CST-1368DR,5869,8214,15081,0.139,551
2020-10-20T13:42:15,42.805,6.029,CST-1368DR,5869,8214,15081,0.139,551
2020-10-20T13:45:16,42.805,6.029,CST-1368DR,5869,8213,15080,0.140,551
2020-10-20T13:48:18,42.805,6.029,CST-1368DR,5869,8215,15082,0.139,551
2020-10-20T13:51:20,42.805,6.029,CST-1368DR,5869,8214,15082,0.139,551
2020-10-20T13:54:21,42.805,6.029,CST-1368DR,5870,8214,15080,0.140,551
2020-10-20T13:57:23,42.805,6.029,CST-1368DR,5869,8211,15075,0.141,551
2020-10-20T14:00:24,42.805,6.029,CST-1368DR,5869,8208,15070,0.142,551
2020-10-20T14:03:26,42.805,6.029,CST-1368DR,5869,8214,15081,0.139,551
2020-10-20T14:06:27,42.805,6.029,CST-1368DR,5869,8212,15077,0.141,551
2020-10-20T14:09:29,42.805,6.029,CST-1368DR,5869,8214,15081,0.139,551
2020-10-20T14:12:31,42.805,6.029,CST-1368DR,5869,8213,15079,0.140,551
2020-10-20T14:15:32,42.805,6.029,CST-1368DR,5869,8213,15080,0.140,551
2020-10-20T14:18:34,42.805,6.029,CST-1368DR,5869,8212,15077,0.141,551
2020-10-20T14:21:35,42.805,6.029,CST-1368DR,5869,8214,15082,0.139,551
2020-10-20T14:24:37,42.805,6.029,CST-1368DR,5869,8213,15080,0.140,551
2020-10-20T14:27:38,42.805,6.029,CST-1368DR,5869,8212,15078,0.140,551
2020-10-20T14:30:40,42.805,6.029,CST-1368DR,5869,8213,15079,0.140,551
2020-10-20T14:33:42,42.805,6.029,CST-1368DR,5869,8213,15079,0.140,551
2020-10-20T14:36:43,42.805,6.029,CST-1368DR,5869,8208,15071,0.142,551
2020-10-20T14:39:45,42.805,6.029,CST-1368DR,5869,8214,15082,0.139,551
2020-10-20T14:42:46,42.805,6.029,CST-1368DR,5869,8214,15081,0.139,551
2020-10-20T14:45:48,42.805,6.029,CST-1368DR,5869,8213,15080,0.140,551
2020-10-20T14:48:50,42.805,6.029,CST-1368DR,5869,8213,15080,0.140,551
2020-10-20T14:51:51,42.805,6.029,CST-1368DR,5869,8213,15080,0.140,551
2020-10-20T14:54:53,42.805,6.029,CST-1368DR,5869,8214,15081,0.139,551
2020-10-20T14:57:54,42.805,6.029,CST-1368DR,5869,8214,15082,0.139,551
2020-10-20T15:00:56,42.805,6.029,CST-1368DR,5869,8214,15081,0.139,551
2020-10-20T15:03:57,42.805,6.029,CST-1368DR,5869,8213,15080,0.140,550
2020-10-20T15:06:59,42.805,6.029,CST-1368DR,5869,8215,15082,0.139,551
2020-10-20T15:10:01,42.805,6.029,CST-1368DR,5869,8214,15081,0.139,551
2020-10-20T15:13:02,42.805,6.029,CST-1368DR,5869,8213,15080,0.140,550
2020-10-20T15:16:04,42.805,6.029,CST-1368DR,5869,8213,15080,0.140,551
2020-10-20T15:19:05,42.805,6.029,CST-1368DR,5869,8213,15079,0.140,551
2020-10-20T15:22:07,42.805,6.029,CST-1368DR,5869,8215,15083,0.139,551
2020-10-20T15:25:09,42.805,6.029,CST-1368DR,5869,8214,15081,0.139,551
2020-10-20T15:28:10,42.805,6.029,CST-1368DR,5869,8213,15080,0.140,551
2020-10-20T15:31:12,42.805,6.029,CST-1368DR,5869,8214,15082,0.139,551
2020-10-20T15:34:13,42.805,6.029,CST-1368DR,5869,8213,15079,0.140,551
2020-10-20T15:37:15,42.805,6.029,CST-1368DR,5869,8213,15080,0.140,551
2020-10-20T15:40:16,42.805,6.029,CST-1368DR,5869,8214,15081,0.139,551
2020-10-20T15:43:18,42.805,6.029,CST-1368DR,5869,8214,15081,0.139,551
2020-10-20T15:46:20,42.805,6.029,CST-1368DR,5869,8214,15081,0.139,551
2020-10-20T15:49:21,42.805,6.029,CST-1368DR,5869,8213,15080,0.140,551
2020-10-20T15:52:23,42.805,6.029,CST-1368DR,5869,8213,15079,0.140,551
2020-10-20T15:55:24,42.805,6.029,CST-1368DR,5869,8214,15081,0.139,551
2020-10-20T15:58:26,42.805,6.029,CST-1368DR,5869,8213,15080,0.140,551
2020-10-20T16:01:27,42.805,6.029,CST-1368DR,5869,8214,15081,0.139,551
2020-10-20T16:04:29,42.805,6.029,CST-1368DR,5869,8214,15081,0.139,551
2020-10-20T16:07:31,42.805,6.029,CST-1368DR,5869,8213,15080,0.140,551
2020-10-20T16:10:32,42.805,6.029,CST-1368DR,5869,8213,15080,0.140,550
2020-10-20T16:13:34,42.805,6.029,CST-1368DR,5869,8214,15081,0.139,551
2020-10-20T16:16:35,42.805,6.029,CST-1368DR,5869,8214,15081,0.139,551
2020-10-20T16:19:37,42.805,6.029,CST-1368DR,5869,8213,15079,0.140,551
2020-10-20T16:22:39,42.805,6.029,CST-1368DR,5869,8214,15081,0.139,551
2020-10-20T16:25:40,42.805,6.029,CST-1368DR,5869,8214,15081,0.139,551
2020-10-20T16:28:42,42.805,6.029,CST-1368DR,5869,8214,15081,0.139,551
2020-10-20T16:31:43,42.805,6.029,CST-1368DR,5869,8214,15081,0.139,551
2020-10-20T16:34:45,42.805,6.029,CST-1368DR,5869,8214,15081,0.139,551
2020-10-20T16:37:46,42.805,6.029,CST-1368DR,5869,8214,15081,0.139,551
2020-10-20T16:40:48,42.805,6.029,CST-1368DR,5869,8214,15081,0.139,551
2020-10-20T16:43:50,42.805,6.029,CST-1368DR,5869,8213,15080,0.140,551
2020-10-20T16:46:51,42.805,6.029,CST-1368DR,5869,8214,15081,0.139,551
2020-10-20T16:49:53,42.805,6.029,CST-1368DR,5869,8213,15079,0.140,551
2020-10-20T16:52:54,42.805,6.029,CST-1368DR,5869,8214,15081,0.139,551